Location: Bailleul
(50.3375°N, 2.8513°E)
Time: 21:24:19
(UTC+00:00)

Lacrosse 5 rocket - Pass Details

Date: 19 April 2021
Orbit: 460 x 635 km, 57.0° (Epoch: 17 May)

Event Time Altitude Azimuth Distance (km) Brightness Sun altitude
Rises 20:58:06 0° 288° (WNW) 2,716 5.9 -18.0°
Reaches altitude 10° 21:00:27 10° 298° (WNW) 1,854 5.1 -18.2°
Maximum altitude 21:04:18 33° 3° (N) 982 3.0 -18.7°
Enters shadow 21:08:13 11° 68° (ENE) 1,904 3.9 -19.1°
